ONEWEB-0110 (47260 NORAD) Tracking and Keplerian Element Data

This shows tracking and keplerian element data for the satellite.

Feedback or suggestion? Click here.




ElementValue
Catalog47260
NameONEWEB-0110
Epoch Orbit440
Epoch Day16.16667824
Epoch Year2021
RAAN29.53
Inclination87.4329
Eccentricity0.0008465
Argument of Perigee160.7232
Mean Anonmoly352.976
Mean Motion15.19798524
Decay Rate-0.01498985
L11 47260U 20100C 21016.16667824 -.01498985 00000-0 -76609-1 0 9997
L22 47260 87.4329 29.5300 0008465 160.7232 352.9760 15.19798524 4408

Live tracking and technical data element details for ONEWEB-0110 (NORAD 47260). ONEWEB-0110 can be tracked NOW for your location showing map with azimuth and elevation plus other details from your city location.

Track the satellite on the map from your city or location and see movement details for azimuth, elevation, latitude, longitude, range, height, and movement on the map or in text.







IsCatalogInMostPopularTable: catalog: 47260, numindb: 10
Update: records affected: 1



GetName: 47260 ONEWEB-0110

Hit Count: updated at: Sun, 17 Jan 2021 09:21:25 GMT